ASTRA 3A

Last updated on Sat Nov 19 2022 00:02:44 GMT+0000 (Coordinated Universal Time)

1 27400U 02015B 22321.53334907 -.00000107 00000+0 00000+0 0 9992 2 27400 7.7133 58.1406 0001978 264.0614 197.3431 0.99774689 75603

Satellite not in orbit

ASTRA 3A